[[{"header":{"parameterUnit":"m.s-1","parameterCategory":1,"la1":30.2991,"la2":30.254,"lo1":-89.0895,"lo2":-89.0444,"dy":0.0017,"dx":0.0017,"nx":28,"ny":28,"refTime":"2024-09-02T09:00:00:Z","depth":0,"parameterNumber":2,"parameterNumberName":"U-component_of_WINDS"},"data":[0,0,0,0,0,0,0,0,0,0,0,0,0,0,0,0,0,0,0,0,0,0,0,0,0,0,0,0,0,0,0,0,0,0,0,0,0,0,0,0,0,0,0,0,0,0,0,0,0,0,0,0,0,0,0,0,0,0,0.4184,0.4185,0,0.4287,0.4288,0.429,0.4298,0.4297,0.4296,0.4295,0.4405,0.4408,0.4412,0,0,0,0,0,0,0,0,0,0,0,0,0,0.4,0.4003,0.4184,0.4185,0.4187,0.4287,0.4289,0.429,0.4298,0.4297,0.4296,0.4294,0.4403,0.4408,0.4413,0,0,0,0,0,0,0,0,0,0,0,0,0,0.4089,0.4004,0.4184,0.4203,0.4206,0.4287,0.4289,0.429,0.4299,0.4297,0.4295,0.4294,0.4402,0.4407,0.4413,0.4484,0,0,0.4432,0.4434,0,0,0,0,0,0,0,0,0.4084,0.4096,0.4199,0.4202,0.4205,0.4278,0.4264,0.4355,0.4299,0.4264,0.4295,0.4293,0.4364,0.4373,0.4396,0.4489,0.4494,0.4432,0.4436,0.4438,0.444,0,0,0,0,0,0,0,0.4078,0.4092,0.4225,0.42,0.4204,0.4208,0.4219,0.4281,0.4322,0.4267,0.4267,0.4279,0.4366,0.439,0.4399,0.4495,0.4432,0.4437,0.4441,0.4443,0.4653,0.4654,0,0,0,0,0,0,0.4067,0.4086,0.4222,0.4228,0.4139,0.4213,0.4225,0.4256,0.4321,0.433,0.4281,0.4279,0.4381,0.4392,0.4403,0.449,0.4438,0.4444,0.4447,0.4651,0.4653,0.4655,0,0,0,0,0,0,0.4063,0.4079,0.4218,0.4158,0.4175,0.4218,0.4253,0.4259,0.4284,0.4332,0.434,0.4298,0.438,0.4394,0.4464,0.4494,0.4446,0.4452,0.4648,0.4651,0.4654,0.4665,0,0,0,0,0,0,0.4058,0.4078,0.4104,0.4158,0.4179,0.4275,0.4255,0.4263,0.4294,0.4293,0.4351,0.4359,0.438,0.4455,0.4469,0.4501,0.4456,0.4646,0.465,0.4653,0.4662,0.4668,0.4673,0,0,0,0,0,0.4051,0.4103,0.4105,0.4121,0.4212,0.4277,0.4289,0.4311,0.4296,0.4324,0.4355,0.4357,0.4488,0.4462,0.4478,0.4513,0.4644,0.4648,0.4653,0.466,0.4667,0.4673,0,0,0,0,0,0,0.4053,0.4111,0.4113,0.4184,0.4225,0.4278,0.4313,0.4318,0.4366,0.4363,0.439,0.4403,0.4472,0.4499,0.4468,0.4585,0.4565,0.4573,0.4564,0.4572,0.4577,0.4569,0.4461,0,0,0,0,0,0.4061,0.4108,0.4157,0.4214,0.4235,0.427,0.43,0.4314,0.4358,0.4376,0.4412,0.4456,0.4508,0.4541,0.4591,0.4666,0.468,0.4698,0.4704,0.4708,0.4715,0.4758,0.4767,0.467,0.467,0.467,0,0,0.4079,0.4116,0.4145,0.4216,0.4249,0.4299,0.4285,0.4338,0.4375,0.4385,0.4452,0.448,0.4532,0.4604,0.4638,0.4629,0.4745,0.4714,0.4717,0.4721,0.4764,0.4773,0.4781,0.4673,0.4672,0.4672,0,0,0.4137,0.4169,0.4221,0.4256,0.4306,0.433,0.4343,0.4395,0.4414,0.4482,0.449,0.4536,0.4624,0.466,0.469,0.4764,0.4768,0.478,0.4808,0.485,0.4858,0.4865,0.4892,0.4901,0.4786,0.4786,0.4786,0,0.4153,0.4226,0.4248,0.4301,0.4332,0.4342,0.4396,0.4429,0.4494,0.4516,0.4505,0.4616,0.4652,0.4734,0.4752,0.4776,0.4792,0.4773,0.4854,0.4862,0.4869,0.4895,0.4905,0.4787,0.4787,0.4787,0.4787,0,0.4244,0.4295,0.4331,0.4393,0.4429,0.4482,0.4513,0.4548,0.4559,0.4584,0.4654,0.4697,0.4756,0.4777,0.4788,0.4861,0.4854,0.4849,0.4829,0.4879,0.4904,0.4914,0.4789,0.4788,0.4788,0.4788,0,0,0.4305,0.4378,0.4391,0.442,0.4477,0.4518,0.4573,0.463,0.4659,0.4704,0.4751,0.4826,0.4821,0.4856,0.4872,0.4908,0.4965,0.4899,0.4901,0.491,0.5049,0.5053,0.5064,0.4968,0.497,0.4972,0.5045,0,0.437,0.4465,0.4487,0.4569,0.4618,0.4628,0.4676,0.4718,0.4743,0.4789,0.4818,0.4871,0.486,0.4881,0.4918,0.495,0.4994,0.4945,0.5014,0.5016,0.5001,0.5077,0.5082,0.5149,0.5055,0.5057,0.5058,0,0.4457,0.4504,0.4591,0.4643,0.4664,0.4706,0.4761,0.4804,0.4852,0.4869,0.4907,0.492,0.4979,0.4956,0.5039,0.5006,0.5036,0.5056,0.5059,0.5067,0.504,0.5088,0.517,0.5181,0.5074,0.5072,0.5071,0,0.4494,0.4578,0.4641,0.4665,0.4728,0.4757,0.4785,0.4831,0.4865,0.4913,0.4935,0.499,0.5021,0.5064,0.5092,0.5073,0.5173,0.5152,0.5189,0.5189,0.521,0.5208,0.5299,0.5228,0.5228,0.5228,0.5228,0,0.4564,0.4617,0.4658,0.4697,0.4758,0.4783,0.4843,0.4871,0.4913,0.4959,0.4972,0.5015,0.5049,0.5098,0.512,0.5186,0.52,0.5216,0.5221,0.5215,0.5213,0.5235,0.5231,0.5231,0.523,0.523,0.5229,0,0.4614,0.4644,0.4713,0.4767,0.4782,0.4824,0.4871,0.491,0.4936,0.4994,0.501,0.5051,0.5109,0.5141,0.5214,0.523,0.5303,0.5306,0.5287,0.5289,0.5324,0.5321,0.5433,0.5449,0.5367,0.5368,0.5368,0,0.4657,0.4698,0.4755,0.4787,0.4814,0.4865,0.4898,0.4926,0.4961,0.502,0.5053,0.5111,0.5159,0.5252,0.529,0.5346,0.5351,0.5386,0.5359,0.5352,0.5352,0.535,0.5354,0.5391,0.5392,0.5392,0.5393,0,0.4729,0.4742,0.479,0.4843,0.4883,0.4927,0.497,0.4996,0.5031,0.507,0.5129,0.5166,0.5241,0.5299,0.5359,0.5389,0.5398,0.5401,0.5413,0.5406,0.5394,0.5402,0.53,0.5398,0.5398,0.5397,0.5397,0.5397,0.4778,0.4815,0.4862,0.4915,0.4951,0.4991,0.5031,0.5062,0.5111,0.5173,0.5187,0.5249,0.5298,0.5379,0.5411,0.5462,0.5455,0.5472,0.5476,0.548,0.5482,0.5385,0.5473,0.5473,0.5473,0.5472,0.5472,0,0.4852,0.4883,0.4931,0.4991,0.5034,0.5037,0.5085,0.5121,0.5175,0.522,0.5267,0.5335,0.5392,0.5435,0.5494,0.5526,0.5532,0.5541,0.5539,0.5546,0.5484,0.5468,0.5536,0.5536,0.5536,0.5536,0.5536,0.5535,0.4896,0.4959,0.4978,0.506,0.5091,0.5151,0.5179,0.5217,0.5253,0.5328,0.5376,0.5403,0.5447,0.5509,0.5563,0.5574,0.5596,0.5604,0.5616,0.5557,0.555,0.5544,0.5529,0.5609,0.5609,0.5675,0.5675,0.5676]},{"header":{"parameterUnit":"m.s-1","parameterCategory":1,"la1":30.2991,"la2":30.254,"lo1":-89.0895,"lo2":-89.0444,"dy":0.0017,"dx":0.0017,"nx":28,"ny":28,"refTime":"2024-09-02T09:00:00:Z","depth":0,"parameterNumber":3,"parameterNumberName":"V-component_of_WINDS"},"data":[0,0,0,0,0,0,0,0,0,0,0,0,0,0,0,0,0,0,0,0,0,0,0,0,0,0,0,0,0,0,0,0,0,0,0,0,0,0,0,0,0,0,0,0,0,0,0,0,0,0,0,0,0,0,0,0,0,0,-0.239,-0.239,0,-0.2401,-0.2402,-0.2402,-0.2457,-0.2458,-0.246,-0.2461,-0.2471,-0.247,-0.2469,0,0,0,0,0,0,0,0,0,0,0,0,0,-0.2415,-0.2415,-0.239,-0.239,-0.239,-0.2401,-0.2402,-0.2402,-0.2457,-0.2458,-0.246,-0.2461,-0.2471,-0.247,-0.2469,0,0,0,0,0,0,0,0,0,0,0,0,0,-0.2413,-0.2414,-0.239,-0.2419,-0.2422,-0.2401,-0.2402,-0.2402,-0.2456,-0.2458,-0.246,-0.2462,-0.2472,-0.247,-0.2469,-0.242,0,0,-0.2464,-0.2464,0,0,0,0,0,0,0,0,-0.2413,-0.2412,-0.2415,-0.2417,-0.242,-0.243,-0.2414,-0.2408,-0.2456,-0.2443,-0.2461,-0.2463,-0.2455,-0.2456,-0.2453,-0.2421,-0.2421,-0.2464,-0.2463,-0.2463,-0.2462,0,0,0,0,0,0,0,-0.2413,-0.2412,-0.2395,-0.2415,-0.2418,-0.2431,-0.2433,-0.2413,-0.2438,-0.2445,-0.2449,-0.2449,-0.2457,-0.2454,-0.2454,-0.2421,-0.2464,-0.2463,-0.2462,-0.2461,-0.235,-0.2348,0,0,0,0,0,0,-0.241,-0.2412,-0.2394,-0.2395,-0.2422,-0.2429,-0.2432,-0.2425,-0.2439,-0.2443,-0.2448,-0.2452,-0.2456,-0.2455,-0.2454,-0.2399,-0.2463,-0.2461,-0.2461,-0.2352,-0.235,-0.2347,0,0,0,0,0,0,-0.241,-0.2407,-0.2394,-0.2404,-0.2404,-0.2427,-0.2419,-0.2424,-0.2421,-0.2441,-0.2445,-0.244,-0.2458,-0.2456,-0.2429,-0.24,-0.2461,-0.2459,-0.2355,-0.2351,-0.2348,-0.2286,0,0,0,0,0,0,-0.241,-0.2407,-0.2389,-0.2404,-0.2403,-0.2368,-0.2417,-0.2423,-0.2419,-0.2424,-0.2435,-0.2439,-0.2459,-0.243,-0.2427,-0.2399,-0.2458,-0.2357,-0.2353,-0.2349,-0.2291,-0.2282,-0.2273,0,0,0,0,0,-0.2411,-0.2371,-0.2388,-0.2386,-0.2381,-0.2366,-0.2366,-0.239,-0.2416,-0.2398,-0.2411,-0.2438,-0.2404,-0.2427,-0.2424,-0.2395,-0.2359,-0.2354,-0.235,-0.2295,-0.2283,-0.2274,0,0,0,0,0,0,-0.2352,-0.2373,-0.2393,-0.2356,-0.2359,-0.2375,-0.2353,-0.2377,-0.2372,-0.2377,-0.2408,-0.241,-0.2377,-0.2383,-0.2409,-0.2349,-0.2386,-0.238,-0.2346,-0.2335,-0.2326,-0.2325,-0.2457,0,0,0,0,0,-0.2335,-0.2321,-0.2341,-0.2306,-0.2307,-0.233,-0.2324,-0.2343,-0.2347,-0.2348,-0.2359,-0.2361,-0.2351,-0.2343,-0.2335,-0.2293,-0.2296,-0.2271,-0.2262,-0.2255,-0.2249,-0.2227,-0.2216,-0.2332,-0.2332,-0.2332,0,0,-0.2299,-0.2309,-0.2298,-0.2295,-0.2299,-0.2284,-0.233,-0.2312,-0.2301,-0.2345,-0.232,-0.2327,-0.2332,-0.2297,-0.2282,-0.2301,-0.2218,-0.2249,-0.2243,-0.2241,-0.2221,-0.221,-0.22,-0.2329,-0.2329,-0.233,0,0,-0.2225,-0.2232,-0.2204,-0.2208,-0.2214,-0.223,-0.2223,-0.2236,-0.2243,-0.2218,-0.2251,-0.2238,-0.222,-0.2222,-0.222,-0.2149,-0.2173,-0.2145,-0.2098,-0.2076,-0.2067,-0.2059,-0.2033,-0.2023,-0.214,-0.2139,-0.2139,0,-0.2179,-0.2158,-0.2187,-0.2166,-0.2164,-0.2204,-0.2176,-0.2178,-0.2181,-0.2178,-0.22,-0.2178,-0.2184,-0.2149,-0.2132,-0.213,-0.2122,-0.2143,-0.2066,-0.2059,-0.2052,-0.2027,-0.2017,-0.2136,-0.2136,-0.2137,-0.2137,0,-0.2101,-0.2086,-0.2063,-0.2066,-0.2061,-0.2036,-0.2061,-0.2052,-0.2072,-0.2085,-0.2059,-0.2068,-0.2062,-0.2055,-0.2074,-0.2023,-0.2035,-0.2061,-0.2099,-0.2036,-0.2014,-0.2005,-0.2131,-0.2132,-0.2133,-0.2134,0,0,-0.199,-0.2009,-0.2,-0.2002,-0.2012,-0.2001,-0.1979,-0.1973,-0.1965,-0.1966,-0.1948,-0.1932,-0.1956,-0.1955,-0.1974,-0.1955,-0.1897,-0.1983,-0.1984,-0.1966,-0.1841,-0.182,-0.1809,-0.1914,-0.1912,-0.1911,-0.184,0,-0.1919,-0.1883,-0.1908,-0.1867,-0.1853,-0.1892,-0.1872,-0.1876,-0.1888,-0.1878,-0.1891,-0.1879,-0.1912,-0.1912,-0.1895,-0.1907,-0.1872,-0.1913,-0.1896,-0.1895,-0.1893,-0.1797,-0.1776,-0.1709,-0.1832,-0.183,-0.1829,0,-0.1831,-0.1829,-0.1787,-0.18,-0.1796,-0.1778,-0.1775,-0.1765,-0.1771,-0.1781,-0.1779,-0.1804,-0.1783,-0.1821,-0.1792,-0.1819,-0.1814,-0.1819,-0.1817,-0.1816,-0.1858,-0.1792,-0.1688,-0.1677,-0.1816,-0.1817,-0.1818,0,-0.1753,-0.1739,-0.1713,-0.1713,-0.1728,-0.1715,-0.1721,-0.1728,-0.1723,-0.1721,-0.1718,-0.1714,-0.171,-0.1706,-0.1728,-0.1754,-0.1696,-0.1736,-0.1703,-0.1702,-0.1688,-0.1688,-0.158,-0.1686,-0.1687,-0.1687,-0.1687,0,-0.1671,-0.1643,-0.1678,-0.1661,-0.1631,-0.1661,-0.163,-0.164,-0.1647,-0.1632,-0.1665,-0.1651,-0.1682,-0.1671,-0.1688,-0.1661,-0.166,-0.1667,-0.1671,-0.1663,-0.1662,-0.1659,-0.1664,-0.1684,-0.1685,-0.1685,-0.1686,0,-0.1577,-0.16,-0.1573,-0.159,-0.1594,-0.1571,-0.1585,-0.157,-0.1585,-0.1567,-0.1564,-0.1587,-0.1575,-0.1597,-0.1588,-0.16,-0.1562,-0.1575,-0.156,-0.1563,-0.1528,-0.1531,-0.1414,-0.1399,-0.1516,-0.1515,-0.1514,0,-0.1523,-0.1503,-0.1518,-0.1511,-0.1515,-0.1503,-0.1499,-0.1528,-0.1522,-0.1527,-0.1511,-0.1502,-0.1497,-0.1477,-0.1492,-0.1485,-0.1497,-0.1457,-0.1496,-0.1489,-0.1496,-0.1496,-0.1494,-0.1448,-0.1447,-0.1446,-0.1445,0,-0.1423,-0.1435,-0.1428,-0.1425,-0.1419,-0.1418,-0.1419,-0.1411,-0.1441,-0.1433,-0.1422,-0.1418,-0.1409,-0.14,-0.1397,-0.1403,-0.1428,-0.1432,-0.1424,-0.1415,-0.1407,-0.1409,-0.1536,-0.1434,-0.1435,-0.1436,-0.1437,-0.1437,-0.1347,-0.1331,-0.1339,-0.133,-0.1334,-0.1334,-0.1321,-0.1335,-0.1326,-0.1322,-0.1339,-0.1324,-0.1331,-0.133,-0.1333,-0.1321,-0.1339,-0.1327,-0.1324,-0.132,-0.1314,-0.141,-0.1321,-0.1321,-0.1321,-0.1321,-0.1322,0,-0.1248,-0.1256,-0.1247,-0.1248,-0.1241,-0.1267,-0.127,-0.1261,-0.1248,-0.1252,-0.1246,-0.1234,-0.1225,-0.124,-0.1234,-0.1222,-0.1233,-0.1219,-0.1219,-0.122,-0.1299,-0.1306,-0.121,-0.121,-0.121,-0.121,-0.121,-0.121,-0.1196,-0.117,-0.1183,-0.1159,-0.1167,-0.1153,-0.1152,-0.1152,-0.1156,-0.114,-0.1134,-0.1144,-0.1153,-0.1147,-0.1141,-0.1145,-0.1141,-0.1122,-0.1131,-0.1204,-0.1215,-0.1225,-0.1232,-0.1121,-0.1121,-0.1053,-0.1052,-0.1051]}]]